Regional Weather Roundup
Issued by NWS Newport/Morehead, NC

Home | Current Version | Previous Version | Text Only | Print | Product List | Glossary On
Versions: 1 2 3 4 5 6 7 8 9 10 11 12 13 14 15 16 17 18 19 20 21 22 23 24 25 26 27 28 29 30 31 32 33 34 35 36 37 38 39 40 41 42 43 44 45 46 47 48 49 50
000
ASUS42 KMHX 250525
RWRMHX
WEATHER ROUNDUP FOR EASTERN NORTH CAROLINA
NATIONAL WEATHER SERVICE NEWPORT/MOREHEAD CITY NC
100 AM EDT SUN SEP 25 2016

NOTE: "FAIR" INDICATES FEW OR NO CLOUDS BELOW 12,000 FEET
WITH NO SIGNIFICANT WEATHER AND/OR OBSTRUCTIONS TO VISIBILITY

NCZ015>017-031-032-045>047-102-103-250600-
NORTH COAST

CITY           SKY/WX    TMP DP  RH WIND       PRES   REMARKS
EDENTON        CLOUDY    73  73 100 NE3       30.09S
ELIZABETH CITY CLOUDY    72  66  81 NE10      30.09S
KITTY HAWK     NOT AVBL
MANTEO         PTCLDY    72  66  82 NE15      30.07F

$$

NCZ045>047-081-094-103-104-250600-
CENTRAL COAST

CITY           SKY/WX    TMP DP  RH WIND       PRES   REMARKS
FRISCO         PTCLDY    74  68  81 NE9       30.05F

$$

NCZ095-097-098-100-101-250600-
SOUTHERN COAST

CITY           SKY/WX    TMP DP  RH WIND       PRES   REMARKS
BEAUFORT       CLEAR     75  72  90 NE5       30.05S
CEDAR ISLAND   NOT AVBL
JACKSONVILLE   CLEAR     71  69  93 CALM      30.04S
PINEY ISLAND   PTCLDY   N/A N/A N/A NE10      30.05F
WILMINGTON     CLEAR     71  69  93 CALM      30.04S


$$

NCZ011>013-027>030-043-044-078>080-089-090>093-098-250600-
COASTAL PLAIN

CITY           SKY/WX    TMP DP  RH WIND       PRES   REMARKS
AHOSKIE        MOCLDY    71  67  89 NE6       30.10S
CLINTON        CLEAR     70  70  99 CALM      30.05S
ELIZABETHTOWN  CLEAR     72  72  99 CALM      30.04F
GOLDSBORO      MOCLDY    73  73 100 NE10      30.05R
GREENVILLE     CLOUDY    72  72 100 E6        30.09S
HAVELOCK       CLEAR     74  71  91 E6        30.07R
KENANSVILLE    CLEAR     66  66 100 CALM      30.05S
KINSTON        CLOUDY    74  72  94 NE8       30.07S
NEW BERN       CLEAR     74  71  91 E8        30.07S
RICHLANDS      CLEAR     68  68 100 CALM      30.05S FOG
ROCKY MOUNT    CLOUDY    73  71  93 NE6       30.08S
WASHINGTON     MOCLDY    71  70  96 NE3       30.08R
WHITEVILLE     NOT AVBL

$$

AMZ130-135-150-152-154-156-158-170-250-252-270-ANZ085-086-088-633-658-670-250600-
MARINE OBSERVATIONS

STATION/POSITION TIME  TEMP    WIND        PRES    WAVE   SWELL
                       AIR SEA DIR/SP/G            HT/PER HT/PER
                 (UTC) (F)     (DEG/KT/KT) (MB)    (FT/S) (FT/S)
CHESAPEAKE LIGHT NOT AVBL
64 E VA BEACH    0450   73 74   30/ 16/ 19 1017.7    5/10   3/10
DUCK             0500   73 78   30/ 17/ 19 1017.9
2 E DUCK         0441      77                N/A     5/11   2/11
OREGON INLET     0500   73 79   30/ 14/ 17 1017.7
13E OREGON INLT  0430      77                N/A     5/11   3/11
HATTERAS CG      0500   75 82   30/  9/ 12 1017.3
DIAMOND BUOY     0450   77 85   40/ 16/ 17 1016.9    6/11   5/11
CAPE LOOKOUT     0500   78      60/ 14/ 15 1017.3
BEAUFORT LAB     0500   75 80   50/  2/  4 1017.0
30 SE NEW RVR IN 0508   81 82   80/  8/ 12 1017.1
30 SE NEW RVR IN 0455      82                N/A     3/11   2/11
27 SE WRIGHTSVLE 0508   81 81   90/  8/ 10 1017.2
5 SE WRIGHTSVLE  0508   81 81  130/  4/  6 1018.1
225 S CAPE HAT   0450   81 84   40/  4/  6 1015.8    4/10   5/10
41 SE CHARLESTON 0450   81 82   60/  8/ 10 1016.1    4/11   3/11

$$



USA.gov is the U.S. government's official web portal to all federal, state and local government web resources and services.